This demonstration page uses our WeatherBlox Daily Observations layout. Learn more.

Left ArrowRight Arrow

39.51506, -84.39828

Hourly Observations for May 14, 2017

Temp ( °F °C ) Dew Point ( °F °C ) Humidity (%) Winds ( mph kmh ) Pressure ( in mb ) Visibility ( mi km ) Precip ( " mm )
12:15 am 00:15 Clear 56 13.2 48 9.1 76 76 Calm 29.88 1012 10 16 0.00 0.00
12:35 am 00:35 Clear 55 12.9 48 8.8 76 76 Calm 29.85 1011 10 16 0.00 0.00
12:55 am 00:55 Clear 55 12.5 47 8.3 76 76 SSW 5 7 29.88 1012 10 16 0.00 0.00
1:15 am 01:15 Clear 57 13.8 47 8.4 70 70 SSW 6 9 29.88 1012 10 16 0.00 0.00
1:35 am 01:35 Clear 57 13.8 48 8.9 73 73 SSW 5 7 29.88 1012 10 16 0.00 0.00
1:55 am 01:55 Clear 56 13.6 48 8.8 73 73 SSW 8 13 29.88 1012 10 16 0.00 0.00
2:15 am 02:15 Clear 55 12.5 46 8 74 74 S 7 11 29.88 1012 10 16 0.00 0.00
2:35 am 02:35 Clear 56 13.1 47 8.3 73 73 SSW 6 9 29.85 1011 10 16 0.00 0.00
2:55 am 02:55 Clear 55 12.5 47 8.1 75 75 S 5 7 29.85 1011 10 16 0.00 0.00
3:15 am 03:15 Clear 55 12.6 46 7.6 72 72 Calm 29.85 1011 10 16 0.00 0.00
3:35 am 03:35 Clear 56 13.5 46 8 70 70 SSW 3 6 29.85 1011 10 16 0.00 0.00
3:55 am 03:55 Clear 57 13.8 46 8 68 68 S 3 6 29.88 1012 10 16 0.00 0.00
4:15 am 04:15 Clear 55 12.5 45 7.4 71 71 Calm 29.88 1012 10 16 0.00 0.00
4:35 am 04:35 Clear 55 12.5 46 7.9 74 74 Calm 29.88 1012 10 16 0.00 0.00
4:55 am 04:55 Clear 54 12.4 48 8.9 79 79 Calm 29.88 1012 10 16 0.00 0.00
5:15 am 05:15 Clear 55 12.5 48 9.1 80 80 Calm 29.88 1012 10 16 0.00 0.00
5:35 am 05:35 Clear 54 12.2 48 9.1 82 82 Calm 29.88 1012 10 16 0.00 0.00
5:55 am 05:55 Clear 55 12.5 49 9.3 81 81 Calm 29.88 1012 10 16 0.00 0.00
6:15 am 06:15 Clear 52 11 46 8 82 82 Calm 29.88 1012 10 16 0.00 0.00
6:35 am 06:35 Sunny 51 10.3 46 7.5 83 83 Calm 29.88 1012 10 16 0.00 0.00
6:55 am 06:55 Sunny 52 11.3 47 8.6 84 84 Calm 29.91 1013 10 16 0.00 0.00
7:15 am 07:15 Sunny 55 12.5 49 9.5 82 82 Calm 29.91 1013 10 16 0.00 0.00
7:35 am 07:35 Sunny 55 12.6 49 9.4 81 81 Calm 29.91 1013 10 16 0.00 0.00
7:55 am 07:55 Sunny 60 15.3 52 10.9 75 75 S 3 6 29.88 1012 10 16 0.00 0.00
8:15 am 08:15 Sunny 60 15.7 51 10.3 70 70 S 5 7 29.88 1012 10 16 0.00 0.00
8:35 am 08:35 Sunny 62 16.6 51 10.5 67 67 S 5 7 29.88 1012 10 16 0.00 0.00
8:55 am 08:55 Sunny 65 18.4 53 11.6 65 65 WSW 3 6 29.88 1012 10 16 0.00 0.00
9:15 am 09:15 Sunny 69 20.8 51 10.7 53 53 W 9 15 29.88 1012 10 16 0.00 0.00
9:35 am 09:35 Sunny 71 21.6 50 10.2 48 48 W 7 11 29.88 1012 10 16 0.00 0.00
9:55 am 09:55 Sunny 74 23.6 52 10.9 45 45 W 7 11 29.88 1012 10 16 0.00 0.00
10:15 am 10:15 Sunny 74 23.6 49 9.2 40 40 WNW 10 17 29.88 1012 10 16 0.00 0.00
10:35 am 10:35 Sunny 76 24.2 48 8.9 38 38 NW 13 20 29.88 1012 10 16 0.00 0.00
10:55 am 10:55 Sunny 77 25.1 47 8.5 35 35 WNW 17 28 29.91 1013 10 16 0.00 0.00
11:15 am 11:15 Sunny 77 25.1 47 8.2 34 34 WNW 15 24 29.91 1013 10 16 0.00 0.00
11:35 am 11:35 Sunny 77 25.1 46 7.8 33 33 W 15 24 29.91 1013 10 16 0.00 0.00
11:55 am 11:55 Sunny 80 26.5 46 8 31 31 NW 16 26 29.91 1013 10 16 0.00 0.00
12:15 pm 12:15 Sunny 80 26.5 46 7.7 30 30 W 13 20 29.91 1013 10 16 0.00 0.00
12:35 pm 12:35 Sunny 80 26.5 45 7.3 30 30 WNW 13 20 29.91 1013 10 16 0.00 0.00
12:55 pm 12:55 Sunny 80 26.5 43 6.1 27 27 NW 13 20 29.91 1013 10 16 0.00 0.00
1:15 pm 13:15 Sunny 80 26.7 44 6.4 27 27 WNW 14 22 29.91 1013 10 16 0.00 0.00
1:35 pm 13:35 Sunny 81 27 45 7.2 28 28 WNW 9 15 29.91 1013 10 16 0.00 0.00
1:55 pm 13:55 Sunny 81 27.2 42 5.7 25 25 W 16 26 29.91 1013 10 16 0.00 0.00
2:15 pm 14:15 Sunny 81 27.2 41 4.8 24 24 W 17 28 29.85 1011 10 16 0.00 0.00
2:35 pm 14:35 Sunny 81 27.2 42 5.3 25 25 W 14 22 29.85 1011 10 16 0.00 0.00
2:55 pm 14:55 Sunny 81 27.2 40 4.7 24 24 W 17 28 29.85 1011 10 16 0.00 0.00
3:15 pm 15:15 Sunny 82 27.9 44 6.4 26 26 W 15 24 29.85 1011 10 16 0.00 0.00
3:35 pm 15:35 Sunny 81 27.4 42 5.3 24 24 W 15 24 29.85 1011 10 16 0.00 0.00
3:55 pm 15:55 Partly Cloudy 81 27.2 43 6 26 26 W 15 24 29.85 1011 10 16 0.00 0.00
4:15 pm 16:15 Partly Cloudy 82 28 45 7.1 27 27 W 13 20 29.85 1011 10 16 0.00 0.00
4:35 pm 16:35 Partly Cloudy 82 28 47 8.4 29 29 W 9 15 29.85 1011 10 16 0.00 0.00
4:55 pm 16:55 Partly Cloudy 82 27.9 44 6.8 26 26 W 17 28 29.85 1011 10 16 0.00 0.00
5:15 pm 17:15 Partly Cloudy 80 26.9 46 8 30 30 WNW 10 17 29.83 1010 10 16 0.00 0.00
5:35 pm 17:35 Partly Cloudy 82 28 45 7.1 27 27 W 18 30 29.83 1010 10 16 0.00 0.00
5:55 pm 17:55 Partly Cloudy 82 28 45 7.4 27 27 WSW 12 19 29.83 1010 10 16 0.00 0.00
6:15 pm 18:15 Sunny 81 27.2 43 5.9 26 26 W 17 28 29.83 1010 10 16 0.00 0.00
6:35 pm 18:35 Partly Cloudy 81 27.2 42 5.6 25 25 W 9 15 29.83 1010 10 16 0.00 0.00
6:55 pm 18:55 Sunny 81 27.2 43 6.3 26 26 WSW 12 19 29.83 1010 10 16 0.00 0.00
7:15 pm 19:15 Sunny 80 26.5 44 6.9 29 29 W 8 13 29.85 1011 10 16 0.00 0.00
7:35 pm 19:35 Partly Cloudy 80 26.5 46 7.9 31 31 W 8 13 29.85 1011 10 16 0.00 0.00
7:55 pm 19:55 Partly Cloudy 80 26.5 47 8.6 32 32 W 8 13 29.85 1011 10 16 0.00 0.00
8:15 pm 20:15 Partly Cloudy 77 25.1 49 9.3 37 37 WSW 7 11 29.85 1011 10 16 0.00 0.00
8:35 pm 20:35 Mostly Cloudy 76 24.4 49 9.6 39 39 WSW 5 7 29.85 1011 10 16 0.00 0.00
8:55 pm 20:55 Partly Cloudy 74 23.6 53 11.4 46 46 WSW 5 7 29.85 1011 10 16 0.00 0.00
9:15 pm 21:15 Partly Cloudy 73 22.6 55 12.5 53 53 WSW 5 7 29.85 1011 10 16 0.00 0.00
9:35 pm 21:35 Clear 69 20.8 53 11.4 55 55 W 5 7 29.85 1011 10 16 0.00 0.00
9:55 pm 21:55 Clear 69 20.8 56 13.4 63 63 W 5 7 29.88 1012 10 16 0.00 0.00
10:15 pm 22:15 Clear 67 19.5 54 12.3 63 63 W 3 6 29.88 1012 10 16 0.00 0.00
10:35 pm 22:35 Clear 64 18 53 11.8 67 67 W 5 7 29.88 1012 10 16 0.00 0.00
10:55 pm 22:55 Clear 64 18 54 12.3 69 69 W 5 7 29.88 1012 10 16 0.00 0.00
11:15 pm 23:15 Partly Cloudy 69 20.8 53 11.4 55 55 WNW 5 7 29.91 1013 10 16 0.00 0.00
11:35 pm 23:35 Mostly Cloudy 74 23.6 52 11.1 45 45 WNW 6 9 29.91 1013 10 16 0.00 0.00
11:55 pm 23:55 Mostly Cloudy 72 22.3 52 11.2 50 50 NW 5 7 29.91 1013 10 16 0.00 0.00

Powered by AerisWeather